Laramie, WY

2:46 AM MDT on August 19, 2017 (GMT -0600)
Laramie Regional

Weather History for KLAR - November, 2014

Change the Weather History Date:

Friday, November 21, 2014

  Actual Average Record
Temperature  
Mean Temperature 34 °F 27 °F  
Max Temperature 44 °F 38 °F 59 °F (2006)
Min Temperature 24 °F 15 °F -16 °F (1953)
Degree Days  
Heating Degree Days 31 38  
Month to date heating degree days 817 706  
Since 1 July heating degree days 1840 1949  
Cooling Degree Days 0 0  
Month to date cooling degree days 0 0  
Year to date cooling degree days 67 67  
Moisture  
Dew Point 17 °F    
Average Humidity 48    
Maximum Humidity 63    
Minimum Humidity 33    
Precipitation  
Precipitation 0.00 in 0.02 in 0.34 in (1967)
Month to date precipitation 0.37 0.41  
Year to date precipitation 13.53 10.47  
Sea Level Pressure  
Sea Level Pressure 29.92 in    
Wind  
Wind Speed 13 mph (SW)    
Max Wind Speed 23 mph    
Max Gust Speed 28 mph    
Visibility 10 miles    
Events      
T = Trace of Precipitation, MM = Missing Value Source: NWS Daily Summary

Daily Weather History Graph

Daily Weather History Graph

Search for Another Location

Airport or City:

Trip Planner

Search our weather history database for the weather conditions in past years. The results will help you decide how hot, cold, wet, or windy it might be!

Date:

Astronomy

Nov. 21, 2014 Rise Set
Actual Time 6:58 AM MST 4:38 PM MST
Civil Twilight 6:27 AM MST 5:08 PM MST
Nautical Twilight 5:54 AM MST 5:42 PM MST
Astronomical Twilight 5:21 AM MST 6:15 PM MST
Moon 5:55 AM MST (11/21) 4:25 PM MST (11/21)
Length of Visible Light 10h 40m
Length of Day
9h 40m
Waning Crescent, 1% of the Moon is Illuminated
Nov 21
Waning Crescent
Nov 22
New
Nov 29
First Quarter
Dec 6
Full
Dec 14
Last Quarter

Hourly Weather History & Observations

Time (MST) Temp. Windchill Dew Point Humidity Pressure Visibility Wind Dir Wind Speed Gust Speed Precip Events Conditions
12:53 AM 32.0 °F 23.6 °F 19.0 °F 59% 29.91 in 10.0 mi WSW 10.4 mph - N/A   Overcast
1:53 AM 28.9 °F 19.2 °F 18.0 °F 64% 29.91 in 10.0 mi SW 11.5 mph - N/A   Clear
2:53 AM 30.0 °F 21.1 °F 18.0 °F 61% 29.93 in 10.0 mi SW 10.4 mph - N/A   Clear
3:53 AM 28.9 °F 20.4 °F 18.0 °F 64% 29.93 in 10.0 mi WSW 9.2 mph - N/A   Clear
4:53 AM 28.0 °F 21.7 °F 18.0 °F 66% 29.96 in 10.0 mi West 5.8 mph - N/A   Clear
5:53 AM 28.9 °F 20.4 °F 18.0 °F 64% 29.96 in 10.0 mi West 9.2 mph - N/A   Mostly Cloudy
6:53 AM 32.0 °F 21.2 °F 16.0 °F 52% 29.93 in 10.0 mi SW 16.1 mph - N/A   Clear
7:53 AM 32.0 °F 21.2 °F 16.0 °F 52% 29.94 in 10.0 mi WSW 16.1 mph - N/A   Clear
8:53 AM 35.1 °F 24.8 °F 18.0 °F 50% 29.94 in 10.0 mi SW 17.3 mph - N/A   Clear
9:53 AM 37.0 °F 26.7 °F 18.0 °F 46% 29.91 in 10.0 mi SW 19.6 mph - N/A   Clear
10:53 AM 41.0 °F 31.9 °F 17.1 °F 38% 29.88 in 10.0 mi WSW 19.6 mph - N/A   Clear
11:53 AM 42.1 °F 32.8 °F 17.1 °F 37% 29.86 in 10.0 mi WSW 21.9 mph 27.6 mph N/A   Clear
12:53 PM 43.0 °F 34.5 °F 17.1 °F 35% 29.85 in 10.0 mi WSW 19.6 mph - N/A   Clear
1:53 PM 43.0 °F 34.8 °F 16.0 °F 34% 29.87 in 10.0 mi WSW 18.4 mph - N/A   Clear
2:53 PM 39.9 °F 33.4 °F 17.1 °F 40% 29.88 in 10.0 mi WSW 10.4 mph - N/A   Clear
3:53 PM 41.0 °F 34.3 °F 18.0 °F 40% 29.90 in 10.0 mi West 11.5 mph - N/A   Clear
4:53 PM 35.1 °F 27.9 °F 19.0 °F 52% 29.95 in 10.0 mi West 9.2 mph - N/A   Clear
5:53 PM 30.0 °F 21.1 °F 18.0 °F 61% 29.98 in 10.0 mi WSW 10.4 mph - N/A   Clear
6:53 PM 30.0 °F 20.0 °F 18.0 °F 61% 29.96 in 10.0 mi SW 12.7 mph - N/A   Clear
7:53 PM 28.9 °F 18.6 °F 17.1 °F 61% 29.97 in 10.0 mi SW 12.7 mph - N/A   Clear
8:53 PM 28.0 °F 18.6 °F 17.1 °F 63% 29.96 in 10.0 mi SSW 10.4 mph - N/A   Clear
9:53 PM 27.0 °F 19.5 °F 16.0 °F 63% 29.94 in 10.0 mi SE 6.9 mph - N/A   Clear
10:53 PM 33.1 °F 23.0 °F 17.1 °F 52% 29.86 in 10.0 mi SW 15.0 mph - N/A   Clear
11:53 PM 32.0 °F 21.2 °F 17.1 °F 54% 29.84 in 10.0 mi SSW 16.1 mph 23.0 mph N/A   Clear